User: anonymous   Login
Location: Prague
(50.0830°N, 14.4670°E)
Time: 11:50:02
(UTC+01:00)
Language:

STRAND 1 - Orbit

View from above orbital plane
View from above orbital plane
View from above satellite
View from above satellite

Ground track
Ground track

The orbit data is extracted from the following two-line orbital elements,

1 39090U 13009E   21339.42381968  .00000145  00000-0  65548-4 0  9995
2 39090  98.4126 177.4908 0009952 125.3755 234.8362 14.35210300459568
Epoch (UTC): 05 December 2021 10:10:18
Eccentricity: 0.0009952
inclination: 98.4126°
perigee height: 767 km
apogee height: 781 km
right ascension of ascending node: 177.4908°
argument of perigee: 125.3755°
revolutions per day: 14.35210300
mean anomaly at epoch: 234.8362°
orbit number at epoch: 45956

The dashed part of the orbit path shows where the satellite is in the earth's shadow,  

DLR